User: anonymous   Login
Location: New Canada
(47.1017°N, 68.5042°W)
Time: 23:30:18
(UTC+00:00)
Language:

LilacSat-2 - Orbit

View from above orbital plane
View from above orbital plane
View from above satellite
View from above satellite

Ground track
Ground track

The orbit data is extracted from the following two-line orbital elements,

1 40908U 15049K   24114.56407115  .00015382  00000-0  61576-3 0  9998
2 40908  97.5262 122.9222 0012954 173.1220 187.0198 15.25080681475164
Epoch (UTC): 23 April 2024 13:32:15
Eccentricity: 0.0012954
inclination: 97.5262°
perigee height: 481 km
apogee height: 499 km
right ascension of ascending node: 122.9222°
argument of perigee: 173.1220°
revolutions per day: 15.25080681
mean anomaly at epoch: 187.0198°
orbit number at epoch: 47516

The dashed part of the orbit path shows where the satellite is in the earth's shadow,  

DLR